This is the latest recevied weather packets stored in our database for station/object N0HOT. If no packets are shown the sender has not sent any weather packets the latest 10 day(s).
| Time | Temp. | Humidity | Pressure | Rain* | Wind** | Luminosity | Snow |
|---|---|---|---|---|---|---|---|
| 1788455647 | 21.67° C | 89% | 1011.5 hPa | 0 mm | - | 473 W/m² | - |
| 1788455346 | 21.67° C | 89% | 1011.5 hPa | 0 mm | - | 391 W/m² | - |
| 1788455042 | 21.67° C | 89% | 1011.1 hPa | 0 mm | - | 294 W/m² | - |
| 1788454740 | 21.11° C | 89% | 1011.1 hPa | 0 mm | - | 218 W/m² | - |
| 1788454435 | 21.11° C | 89% | 1011.1 hPa | 0 mm | - | 203 W/m² | - |
| 1788454129 | 21.11° C | 89% | 1010.8 hPa | 0 mm | - | 222 W/m² | - |
| 1788453824 | 21.11° C | 89% | 1011.5 hPa | 0 mm | - | 103 W/m² | - |
| 1788453524 | 21.11° C | 89% | 1011.8 hPa | 0 mm | - | 70 W/m² | - |
| 1788453221 | 21.11° C | 89% | 1011.8 hPa | 0 mm | - | 58 W/m² | - |
| 1788452916 | 21.11° C | 89% | 1011.8 hPa | 0 mm | - | 61 W/m² | - |
| 1788452613 | 21.11° C | 89% | 1011.8 hPa | 0 mm | - | 79 W/m² | - |
| 1788452308 | 21.11° C | 89% | 1011.5 hPa | 0 mm | - | 100 W/m² | - |
| 1788452004 | 21.11° C | 89% | 1011.5 hPa | 0 mm | - | 70 W/m² | - |
| 1788451699 | 21.11° C | 89% | 1011.8 hPa | 0 mm | - | 50 W/m² | - |
| 1788451398 | 21.11° C | 89% | 1012.5 hPa | 0 mm | - | 59 W/m² | - |
| 1788451097 | 21.11° C | 89% | 1012.8 hPa | 0 mm | - | 29 W/m² | - |
| 1788450792 | 21.11° C | 89% | 1013.2 hPa | 0 mm | - | 19 W/m² | - |
| 1788450488 | 21.11° C | 89% | 1012.5 hPa | 0 mm | - | 27 W/m² | - |
| 1788450184 | 21.11° C | 89% | 1012.5 hPa | 0 mm | - | 27 W/m² | - |
| 1788449879 | 21.11° C | 89% | 1012.5 hPa | 1.78 mm | - | 36 W/m² | - |
| 1788449575 | 21.11° C | 89% | 1012.2 hPa | 1.78 mm | - | 52 W/m² | - |
| 1788449271 | 21.11° C | 89% | 1011.8 hPa | 0 mm | - | 43 W/m² | - |
| 1788448967 | 21.11° C | 89% | 1011.8 hPa | 0 mm | - | 33 W/m² | - |
| 1788448672 | 21.11° C | 88% | 1011.8 hPa | 1.27 mm | - | 33 W/m² | - |
| 1788448362 | 21.11° C | 88% | 1012.2 hPa | 0 mm | - | 22 W/m² | - |
* Rain latest hour (hover to see other rain measurements)
** Current wind speed in m/s (hover to see current wind gust speed)